Location: �millieux
(45.3812°N, 4.1578°E)
Time: 04:21:23
(UTC+00:00)

Daily predictions for brighter satellites

Satellite Brightness Start Highest point End
(mag) Time Altitude Azimuth Time Altitude Azimuth Time Altitude Azimuth
USA 234 4.4 02:10:01 10° E 02:14:54 36° NE 02:14:54 36° NE
ATLAS 3B R/B 4.2 02:21:54 28° ESE 02:21:54 28° ESE 02:25:07 10° ESE
CENTAUR R/B 3.5 02:26:11 59° E 02:26:11 59° E 02:33:19 10° SE
ATLAS 2AS CENTAUR R/B 3.0 02:55:13 74° N 02:55:13 74° N 03:02:37 10° NE
SL-16 R/B 3.8 02:58:48 25° SE 03:00:25 29° ESE 03:05:15 10° NE
Cosmos 2184 Rocket 4.2 03:16:09 54° SSE 03:17:29 69° E 03:23:46 10° NNE
USA 267 3.2 03:17:48 10° NE 03:24:23 76° SE 03:25:16 66° SSW
Cosmos 2333 Rocket 3.8 03:28:18 24° NNW 03:28:18 24° NNW 03:31:05 10° N
H-2A R/B 4.0 03:22:44 10° NNE 03:26:41 35° E 03:27:44 31° SE
Cosmos 2219 Rocket 3.8 03:32:08 22° NNW 03:32:08 22° NNW 03:34:42 10° N
ADEOS II 4.2 03:28:10 10° N 03:29:03 14° NNW 03:29:03 14° NNW
Cosmos 1726 4.0 03:37:11 10° NNE 03:40:27 30° ENE 03:43:45 10° SE
MSX 4.2 03:35:20 10° NNE 03:41:02 61° ESE 03:46:41 10° S
RESURS DK-1 3.3 03:42:46 45° NE 03:42:46 45° NE 03:45:43 10° NNE
Cosmos 2074 Rocket 3.8 03:42:47 61° SW 03:43:50 75° W 03:50:04 10° N
Centaur D AC-28 4.4 03:43:17 10° SSE 03:44:06 10° SSE 03:45:01 10° SE
Cosmos 676 Rocket 3.9 03:44:10 76° S 03:44:36 86° ESE 03:49:52 10° NNE
BREEZE-M R/B 4.0 03:44:04 52° NNW 03:44:59 59° N 03:54:26 10° E
Cosmos 44 Rocket 3.2 03:45:14 76° E 03:45:14 76° E 03:49:40 10° SE
Cosmos 2237 Rocket 2.6 03:48:00 47° NNW 03:48:00 47° NNW 03:52:50 10° NNE
Cosmos 407 Rocket 4.2 03:50:37 37° NNW 03:50:37 37° NNW 03:54:10 10° N
Cosmos 1190 Rocket 4.5 03:54:21 45° NNW 03:54:21 45° NNW 03:58:37 10° NNE
IDEFIX/ARIANE 42P 2.4 03:49:50 10° N 03:55:04 71° WNW 03:55:33 66° WSW
USA 234 3.3 03:51:55 10° ESE 03:58:28 79° NE 04:02:15 28° NW
Cosmos 2369 Rocket 3.7 03:54:36 10° N 03:59:40 34° NE 04:04:43 10° ESE
Cosmos 1437 Rocket 3.6 03:57:35 19° SSE 03:59:58 47° E 04:03:38 10° NNE
NOSS 3-4 (A) 3.8 04:04:28 41° WNW 04:05:22 44° NW 04:11:32 10° NNE
NOSS 3-4 (C) 3.8 04:04:32 41° WNW 04:05:28 44° NW 04:11:39 10° NNE
Cosmos 1980 4.4 04:06:22 35° NW 04:06:22 35° NW 04:11:10 10° NNE
Gblst 52 Del rocket 4.0 04:05:00 50° WNW 04:06:32 82° SSW 04:12:22 10° SE
ATLAS 3B R/B 3.1 04:09:16 36° WSW 04:09:16 36° WSW 04:15:06 10° S
Cosmos 2228 3.0 04:13:23 56° SW 04:13:23 56° SW 04:17:00 10° S
Cosmos 1943 Rocket 3.1 04:08:46 10° NNW 04:14:16 48° ENE 04:19:45 10° SE
GP-B 3.6 04:10:12 10° SSE 04:14:34 60° E 04:18:57 10° N
CENTAUR R/B 3.6 04:13:30 33° W 04:15:11 36° WSW 04:22:51 10° S
Meteor 2-5 Rocket 4.4 04:10:06 10° S 04:15:48 59° E 04:21:39 10° NNE
CZ-4B R/B 4.4 04:12:12 10° NNE 04:16:16 62° E 04:20:30 10° S
COSMOS 2428 4.5 04:18:18 16° NW 04:18:18 16° NW 04:21:12 10° N
Cosmos 1674 3.3 04:14:11 10° S 04:17:48 54° E 04:21:28 10° NNE
Cosmos 1140 Rocket 3.9 04:18:23 39° WNW 04:18:33 40° WNW 04:23:24 10° N
Cosmos 1850 Rocket 4.1 04:18:37 10° SSW 04:23:46 75° ESE 04:28:57 10° NNE
CZ-2C R/B 2.4 04:21:19 10° NNE 04:26:32 84° WNW 04:31:37 10° SSW
Cosmos 1954 Rocket 4.3 04:27:20 35° WSW 04:28:48 44° WNW 04:33:47 10° N
COSMO-SKYMED 1 3.6 04:25:23 10° SE 04:29:32 46° ENE 04:33:43 10° N
Meteor 1-31 Rocket 2.6 04:27:17 10° NNE 04:31:06 88° WNW 04:34:53 10° SSW
Cosmos 1726 Rocket 3.8 04:27:53 10° NNW 04:31:58 42° W 04:36:02 10° SSW
Milstar 3 Cent rocket 4.4 04:29:16 10° SSW 04:32:03 13° S 04:34:27 10° SSE
PSLV R/B 4.0 04:32:18 30° SSE 04:32:18 30° SSE 04:34:26 10° ESE
PAYLOAD A 3.9 04:27:51 10° N 04:32:42 61° WNW 04:37:43 10° SSW
Cosmos 468 Rocket 3.9 04:29:53 10° NNW 04:35:04 86° WSW 04:40:11 10° SSE
Okean 1-7 Rocket 3.7 04:32:21 13° SSW 04:36:08 51° WNW 04:40:34 10° N
COBE Rocket 4.3 04:32:20 10° SSE 04:37:23 69° ENE 04:42:33 10° N
Cosmos 962 Rocket 4.4 04:33:09 10° SSW 04:39:26 73° W 04:45:50 10° N
Meteor 2-10 4.1 04:34:38 10° NNW 04:39:46 55° W 04:45:05 10° S
SL-16 R/B 2.5 04:40:46 21° WSW 04:44:18 46° WNW 04:49:47 10° NNE
Iridium 51 4.3 04:40:45 10° N 04:44:23 70° E 04:47:50 10° S
Cosmos 1603 4.3 04:38:55 10° S 04:44:25 59° ESE 04:50:00 10° NNE
Cosmos 1484 Rocket 3.3 04:42:03 10° NNE 04:45:51 61° E 04:49:41 10° S
ATLAS 2AS CENTAUR R/B 4.0 04:42:40 20° WNW 04:46:47 30° NNW 04:53:39 10° NNE
ADEOS 4.4 04:42:33 10° N 04:46:56 28° WNW 04:48:42 23° W
ALOS 3.8 04:44:15 10° NNE 04:48:39 39° E 04:53:01 10° SSE
Cosmos 1300 4.1 04:45:28 10° N 04:49:06 40° ENE 04:52:42 10° SSE
ISS -0.8 04:48:40 10° SSE 04:50:25 14° SE 04:52:11 10° E
Cosmos 2218 Rocket 4.2 04:44:27 10° S 04:50:48 79° E 04:57:07 10° N
Cosmos 841 Rocket 4.0 04:45:52 10° NNW 04:51:07 61° ENE 04:56:17 10° SSE
Cosmos 1602 Rocket 3.9 04:48:18 10° S 04:52:34 67° E 04:56:53 10° NNE
Cosmos 2154 Rocket 4.4 04:48:50 10° SW 04:54:31 37° WNW 05:00:15 10° N
Meteor PRIRODA 3.6 04:52:16 10° N 04:56:00 69° WNW 04:59:42 10° SSW
Cosmos 192 4.3 04:51:55 10° NNW 04:56:55 89° ENE 05:01:52 10° SSE
Meteor 1-24 Rocket 3.8 04:53:05 10° S 04:58:55 86° W 05:04:58 10° N
Cosmos 1570 Rocket 4.0 04:54:16 10° NNW 04:59:38 76° WSW 05:04:55 10° SSE
CZ-4B R/B 3.1 04:56:44 10° N 05:00:27 42° WNW 05:03:59 10° SW
H-2A R/B 3.6 04:58:35 10° NNW 05:02:00 24° WNW 05:04:17 16° WSW
Cosmos 540 Rocket 4.0 04:56:56 10° NNW 05:02:04 61° ENE 05:07:08 10° SSE
Cosmos 2058 Rocket 3.8 05:00:38 10° NNW 05:04:31 30° W 05:08:24 10° SSW
USA 267 3.7 05:00:59 10° NE 05:07:09 46° NNW 05:12:37 13° W
Cosmos 1727 Rocket 4.2 05:02:40 10° N 05:08:57 80° E 05:15:15 10° S
Cosmos 1763 Rocket 3.5 05:03:57 10° NNW 05:08:59 56° WSW 05:13:57 10° S
Cosmos 1900 4.4 05:04:18 10° NNW 05:09:15 78° NE 05:14:08 10° SE
Okean O Rocket 2.2 05:07:17 10° NNE 05:11:40 63° ESE 05:15:59 10° S
SL-8 R/B 3.7 05:08:22 13° WSW 05:12:41 89° S 05:17:30 10° ENE
Cosmos 1943 3.5 05:08:36 10° SSW 05:14:16 75° ESE 05:19:58 10° NNE
Cosmos 864 Rocket 4.5 05:08:54 10° SSW 05:15:08 78° W 05:21:28 10° N
Cosmos 1726 3.5 05:12:54 10° NW 05:15:28 18° W 05:18:03 10° SW
Cosmos 1741 Rocket 4.4 05:10:28 10° SW 05:15:31 44° WNW 05:20:38 10° N
Cosmos 2208 Rocket 4.0 05:12:15 10° NNW 05:17:26 63° WSW 05:22:38 10° S
SKYMED 2 3.7 05:13:19 10° S 05:17:35 55° W 05:21:52 10° NNW
KORONAS-FOTON 4.5 05:14:25 10° SW 05:17:49 31° WNW 05:21:15 10° N
RESURS DK-1 4.2 05:18:42 13° WNW 05:20:08 14° NW 05:22:28 10° N
SL-14 R/B 3.2 05:19:34 10° SSW 05:23:27 71° W 05:27:20 10° N
ASTEX 1 3.4 05:23:23 10° S 05:28:16 85° W 05:33:12 10° N
USA 116 3.5 05:27:58 10° S 05:31:25 51° WSW 05:34:37 10° NNW
Cosmos 2237 Rocket 4.1 05:30:50 10° NW 05:32:48 12° NW 05:34:46 10° NNW
IDEFIX/ARIANE 42P 4.4 05:32:06 10° NW 05:33:42 11° NW 05:35:19 10° WNW
Cosmos 1271 Rocket 4.0 05:31:24 10° S 05:35:04 47° E 05:38:48 10° NNE
Helios 1A Rocket 3.0 05:31:28 10° N 05:35:35 63° WNW 05:39:41 10° SSW
Cosmos 1437 Rocket 4.5 05:34:36 10° W 05:36:32 13° WNW 05:38:28 10° NW
Cosmos 1814 Rocket 4.2 05:32:52 10° NNW 05:38:07 57° WSW 05:43:20 10° S
SL-8 Rocket 4.4 05:32:55 10° SW 05:38:39 39° WNW 05:44:24 10° N
NOAA 6 4.0 05:35:18 10° NNE 05:40:29 80° WNW 05:45:38 10° SSW
Cosmos 1656 Rocket 3.7 05:35:25 10° NNW 05:40:54 84° ENE 05:46:19 10° SSE
USA 234 4.0 05:36:01 10° SSE 05:41:50 34° SW 05:47:41 10° WNW
Cosmos 2369 Rocket 2.6 05:38:33 10° NW 05:43:46 41° WSW 05:48:58 10° S
NOSS 2 (A) 4.3 05:41:58 10° NW 05:44:18 47° SW 05:46:34 10° SSE
Cosmos 1821 Rocket 4.2 05:40:19 10° S 05:46:26 78° E 05:52:32 10° N
